K6OUA-11 Weather Reports


Display with metric or nautical units.
time (UTC)temp
F
wind
direction
speed
MPH
gust
MPH
rain 1hr
in
rain 24hr
in
rain mn
in
humidity
%
barometer
mb
20210120094539 59 315 17.0 24.0 0.00 0.00 0.00 22 1007.6
20210120094403 59 315 17.0 24.0 0.00 0.00 0.00 22 1007.6
20210120093925 59 45 7.0 22.0 0.00 0.00 0.00 22 1007.6
20210120093757 59 45 7.0 22.0 0.00 0.00 0.00 22 1007.6
20210120093648 59 22 18.0 22.0 0.00 0.00 0.00 22 1007.5
20210120093455 59 22 18.0 22.0 0.00 0.00 0.00 22 1007.5
20210120093320 59 58 9.0 19.0 0.00 0.00 0.00 22 1007.5
20210120093154 59 58 9.0 19.0 0.00 0.00 0.00 22 1007.5
20210120092952 59 45 12.0 19.0 0.00 0.00 0.00 22 1007.5
20210120092853 59 45 12.0 19.0 0.00 0.00 0.00 22 1007.5
20210120092743 59 0 13.0 24.0 0.00 0.00 0.00 22 1007.3
20210120092556 59 0 13.0 24.0 0.00 0.00 0.00 22 1007.3
20210120092519 59 0 14.0 24.0 0.00 0.00 0.00 22 1007.4
20210120092251 59 0 14.0 24.0 0.00 0.00 0.00 22 1007.4
20210120092050 60 0 12.0 26.0 0.00 0.00 0.00 22 1007.5
20210120091951 60 0 12.0 26.0 0.00 0.00 0.00 22 1007.5
20210120090032 59 315 13.0 25.0 0.00 0.00 0.00 23 1006.8
20210120085842 59 315 13.0 25.0 0.00 0.00 0.00 23 1006.8
20210120084808 59 315 18.0 24.0 0.00 0.00 0.00 23 1007.0
20210120084640 59 315 18.0 24.0 0.00 0.00 0.00 23 1007.0
20210120084442 59 315 18.0 22.0 0.00 0.00 0.00 23 1006.7
20210120084337 59 315 18.0 22.0 0.00 0.00 0.00 23 1006.7
20210120083734 59 90 21.0 22.0 0.00 0.00 0.00 24 1006.9
20210120083626 59 90 12.0 23.0 0.00 0.00 0.00 24 1006.9
20210120083434 59 90 12.0 23.0 0.00 0.00 0.00 24 1006.9
20210120083317 59 90 13.0 23.0 0.00 0.00 0.00 24 1007.0
20210120083138 59 90 13.0 23.0 0.00 0.00 0.00 24 1007.0
20210120082444 59 0 12.0 23.0 0.00 0.00 0.00 24 1006.9
20210120082231 59 0 12.0 23.0 0.00 0.00 0.00 24 1006.9
20210120082041 59 2 19.0 24.0 0.00 0.00 0.00 24 1007.0
20210120081928 59 2 19.0 24.0 0.00 0.00 0.00 24 1007.0
20210120081535 59 18 16.0 22.0 0.00 0.00 0.00 24 1006.8
20210120081325 59 18 16.0 22.0 0.00 0.00 0.00 24 1006.8
20210120081119 59 45 16.0 27.0 0.00 0.00 0.00 25 1006.7
20210120081026 59 45 16.0 27.0 0.00 0.00 0.00 25 1006.7
20210120080123 59 0 15.0 22.0 0.00 0.00 0.00 26 1006.9
20210120075828 59 36 10.0 22.0 0.00 0.00 0.00 26 1006.9
20210120075726 59 45 18.0 18.0 0.00 0.00 0.00 26 1006.7
20210120075521 59 45 18.0 18.0 0.00 0.00 0.00 26 1006.7
20210120075359 59 0 14.0 24.0 0.00 0.00 0.00 26 1006.9
20210120075218 59 0 14.0 24.0 0.00 0.00 0.00 26 1006.9
20210120075056 59 0 13.0 24.0 0.00 0.00 0.00 26 1006.8
20210120074917 59 0 13.0 24.0 0.00 0.00 0.00 26 1006.8
20210120074739 59 22 12.0 17.0 0.00 0.00 0.00 27 1006.9
20210120074618 59 22 12.0 17.0 0.00 0.00 0.00 27 1006.9
20210120074457 59 45 15.0 20.0 0.00 0.00 0.00 27 1006.9
20210120074317 59 45 15.0 20.0 0.00 0.00 0.00 27 1006.9
20210120074115 59 0 13.0 25.0 0.00 0.00 0.00 27 1007.0
20210120074022 59 0 13.0 25.0 0.00 0.00 0.00 27 1007.0
20210120073601 59 337 23.0 23.0 0.00 0.00 0.00 27 1007.3
20210120073412 59 337 23.0 23.0 0.00 0.00 0.00 27 1007.3
20210120073219 59 60 15.0 20.0 0.00 0.00 0.00 27 1007.1
20210120073134 59 60 15.0 20.0 0.00 0.00 0.00 27 1007.1
20210120072816 60 90 21.0 24.0 0.00 0.00 0.00 27 1007.1
20210120072045 59 90 18.0 22.0 0.00 0.00 0.00 28 1007.1
20210120071905 59 90 18.0 22.0 0.00 0.00 0.00 28 1007.1
20210120071712 59 90 19.0 26.0 0.00 0.00 0.00 28 1007.2
20210120071604 59 90 19.0 26.0 0.00 0.00 0.00 28 1007.2
20210120071153 59 90 10.0 34.0 0.00 0.00 0.00 28 1007.2
20210120071010 59 90 10.0 34.0 0.00 0.00 0.00 28 1007.2
20210120070810 59 90 28.0 34.0 0.00 0.00 0.00 29 1006.9
20210120070703 59 90 28.0 34.0 0.00 0.00 0.00 29 1006.9
20210120070238 59 45 15.0 24.0 0.00 0.00 0.00 29 1007.2
20210120070100 59 45 15.0 24.0 0.00 0.00 0.00 29 1007.2
20210120070025 59 18 19.0 31.0 0.00 0.00 0.00 29 1007.1
20210120065758 59 18 19.0 31.0 0.00 0.00 0.00 29 1007.1
20210120065631 59 90 14.0 29.0 0.00 0.00 0.00 30 1007.1
20210120065456 59 90 14.0 29.0 0.00 0.00 0.00 30 1007.1
20210120065347 59 45 13.0 28.0 0.00 0.00 0.00 29 1007.1
20210120065156 59 45 13.0 28.0 0.00 0.00 0.00 29 1007.1
20210120065032 59 45 12.0 27.0 0.00 0.00 0.00 30 1006.8
20210120064855 59 45 12.0 27.0 0.00 0.00 0.00 30 1006.8
20210120064726 59 90 15.0 25.0 0.00 0.00 0.00 30 1007.0
20210120064555 59 90 15.0 25.0 0.00 0.00 0.00 30 1007.0
20210120064540 59 90 9.0 28.0 0.00 0.00 0.00 30 1007.2
20210120064252 59 90 9.0 28.0 0.00 0.00 0.00 30 1007.2
20210120063533 59 135 15.0 38.0 0.00 0.00 0.00 29 1007.0
20210120063353 59 135 15.0 38.0 0.00 0.00 0.00 29 1007.0
20210120062901 59 135 25.0 28.0 0.00 0.00 0.00 30 1006.9
20210120062748 59 135 25.0 28.0 0.00 0.00 0.00 30 1006.9
20210120062645 59 135 16.0 30.0 0.00 0.00 0.00 31 1006.8
20210120062449 59 135 16.0 30.0 0.00 0.00 0.00 31 1006.8
20210120062326 59 112 25.0 30.0 0.00 0.00 0.00 31 1006.8
20210120062147 59 112 25.0 30.0 0.00 0.00 0.00 31 1006.8
20210120061954 59 135 18.0 28.0 0.00 0.00 0.00 31 1006.7
20210120061844 59 135 18.0 28.0 0.00 0.00 0.00 31 1006.7
20210120061546 59 135 19.0 28.0 0.00 0.00 0.00 31 1006.5
20210120061459 59 135 25.0 27.0 0.00 0.00 0.00 31 1006.2
20210120061244 59 135 25.0 27.0 0.00 0.00 0.00 31 1006.2
20210120060756 59 135 15.0 31.0 0.00 0.00 0.00 32 1006.8
20210120060641 59 135 15.0 31.0 0.00 0.00 0.00 32 1006.8
20210120060526 59 135 9.0 31.0 0.00 0.00 0.00 32 1006.9
20210120060338 59 135 9.0 31.0 0.00 0.00 0.00 32 1006.9
20210120060201 58 105 14.0 32.0 0.00 0.00 0.00 32 1006.8
20210120060041 58 105 14.0 32.0 0.00 0.00 0.00 32 1006.8
20210120055736 58 135 20.0 26.0 0.00 0.00 0.00 32 1006.9
20210120055602 58 135 19.0 28.0 0.00 0.00 0.00 33 1006.7
20210120055437 58 135 19.0 28.0 0.00 0.00 0.00 33 1006.7
20210120055135 58 135 17.0 21.0 0.00 0.00 0.00 33 1006.6
20210120053938 58 90 12.0 36.0 0.00 0.00 0.00 32 1007.0
20210120053133 58 90 15.0 26.0 0.00 0.00 0.00 32 1006.8
20210120053027 58 90 15.0 26.0 0.00 0.00 0.00 32 1006.8
20210120052903 58 112 27.0 40.0 0.00 0.00 0.00 32 1006.3
20210120052726 58 112 27.0 40.0 0.00 0.00 0.00 32 1006.3
20210120052555 58 90 28.0 28.0 0.00 0.00 0.00 32 1006.4
20210120052423 58 90 28.0 28.0 0.00 0.00 0.00 32 1006.4
20210120051821 58 90 21.0 35.0 0.00 0.00 0.00 32 1006.8
20210120051638 58 81 28.0 35.0 0.00 0.00 0.00 32 1006.5
20210120051531 58 81 28.0 35.0 0.00 0.00 0.00 32 1006.5
20210120051355 58 22 6.0 24.0 0.00 0.00 0.00 33 1006.9
20210120051220 58 22 6.0 24.0 0.00 0.00 0.00 33 1006.9
20210120051101 58 45 14.0 33.0 0.00 0.00 0.00 33 1006.8
20210120050925 58 45 14.0 33.0 0.00 0.00 0.00 33 1006.8
20210120050715 58 45 23.0 33.0 0.00 0.00 0.00 33 1006.8
20210120050617 58 45 23.0 33.0 0.00 0.00 0.00 33 1006.8
20210120050541 58 45 12.0 34.0 0.00 0.00 0.00 33 1006.9
20210120050320 58 45 12.0 34.0 0.00 0.00 0.00 33 1006.9
20210120050128 58 74 32.0 34.0 0.00 0.00 0.00 34 1006.3
20210120050024 58 74 32.0 34.0 0.00 0.00 0.00 34 1006.3
20210120045825 57 90 16.0 38.0 0.00 0.00 0.00 35 1006.7
20210120045715 57 90 16.0 38.0 0.00 0.00 0.00 35 1006.7
20210120045554 57 90 32.0 39.0 0.00 0.00 0.00 35 1006.4
20210120045413 57 90 32.0 39.0 0.00 0.00 0.00 35 1006.4
20210120045247 57 90 19.0 32.0 0.00 0.00 0.00 35 1006.8
20210120045111 57 90 19.0 32.0 0.00 0.00 0.00 35 1006.8
20210120044634 57 45 14.0 28.0 0.00 0.00 0.00 36 1006.6
20210120044521 57 45 14.0 28.0 0.00 0.00 0.00 36 1006.6
20210120044054 56 45 16.0 29.0 0.00 0.00 0.00 37 1006.7
20210120043909 56 45 16.0 29.0 0.00 0.00 0.00 37 1006.7
20210120043733 56 65 16.0 36.0 0.00 0.00 0.00 37 1006.3
20210120043605 56 65 16.0 36.0 0.00 0.00 0.00 37 1006.3
20210120043407 56 112 17.0 34.0 0.00 0.00 0.00 38 1006.6
20210120043308 56 112 17.0 34.0 0.00 0.00 0.00 38 1006.6
20210120043123 56 67 12.0 32.0 0.00 0.00 0.00 38 1006.5
20210120043022 56 67 12.0 32.0 0.00 0.00 0.00 38 1006.5
20210120042224 56 112 19.0 40.0 0.00 0.00 0.00 39 1006.6
20210120042105 56 112 19.0 40.0 0.00 0.00 0.00 39 1006.6
20210120041923 56 112 19.0 37.0 0.00 0.00 0.00 39 1006.5
20210120041801 56 112 19.0 37.0 0.00 0.00 0.00 39 1006.5
20210120041630 56 112 18.0 37.0 0.00 0.00 0.00 39 1006.3
20210120041500 56 112 18.0 37.0 0.00 0.00 0.00 39 1006.3
20210120041157 56 90 27.0 35.0 0.00 0.00 0.00 38 1006.0
20210120035517 56 135 35.0 35.0 0.00 0.00 0.00 38 1005.7
20210120035350 56 135 35.0 35.0 0.00 0.00 0.00 38 1005.7
20210120035259 56 135 20.0 43.0 0.00 0.00 0.00 38 1006.0
20210120035049 56 135 20.0 43.0 0.00 0.00 0.00 38 1006.0
20210120034624 56 135 14.0 42.0 0.00 0.00 0.00 37 1006.2
20210120034455 56 135 14.0 42.0 0.00 0.00 0.00 37 1006.2
20210120034336 56 135 10.0 48.0 0.00 0.00 0.00 37 1006.3
20210120034146 56 135 10.0 48.0 0.00 0.00 0.00 37 1006.3
20210120034037 56 90 29.0 48.0 0.00 0.00 0.00 37 1005.6
20210120033851 56 90 29.0 48.0 0.00 0.00 0.00 37 1005.6
20210120033127 57 45 12.0 35.0 0.00 0.00 0.00 35 1006.0
20210120032941 57 45 12.0 35.0 0.00 0.00 0.00 35 1006.0
20210120032753 57 18 25.0 44.0 0.00 0.00 0.00 35 1006.0
20210120032647 57 18 25.0 44.0 0.00 0.00 0.00 35 1006.0
20210120032521 57 45 20.0 35.0 0.00 0.00 0.00 34 1005.7
20210120032339 57 45 20.0 35.0 0.00 0.00 0.00 34 1005.7
20210120032242 57 90 35.0 44.0 0.00 0.00 0.00 34 1005.6
20210120032038 57 90 35.0 44.0 0.00 0.00 0.00 34 1005.6
20210120031621 57 90 15.0 28.0 0.00 0.00 0.00 33 1005.6
20210120031437 57 90 15.0 28.0 0.00 0.00 0.00 33 1005.6
20210120031302 57 96 16.0 29.0 0.00 0.00 0.00 33 1005.3
20210120031138 57 96 16.0 29.0 0.00 0.00 0.00 33 1005.3
20210120030417 58 135 23.0 41.0 0.00 0.00 0.00 32 1005.4
20210120030231 58 135 23.0 41.0 0.00 0.00 0.00 32 1005.4
20210120024610 58 90 31.0 37.0 0.00 0.00 0.00 28 1005.0
20210120024425 58 90 31.0 37.0 0.00 0.00 0.00 28 1005.0
20210120024230 58 90 19.0 30.0 0.00 0.00 0.00 28 1005.0
20210120024126 58 90 19.0 30.0 0.00 0.00 0.00 28 1005.0
20210120023954 59 90 15.0 35.0 0.00 0.00 0.00 27 1004.9
20210120023822 59 90 15.0 35.0 0.00 0.00 0.00 27 1004.9
20210120023704 59 90 33.0 36.0 0.00 0.00 0.00 26 1005.2
20210120023522 59 90 33.0 36.0 0.00 0.00 0.00 26 1005.2
20210120023315 59 90 16.0 36.0 0.00 0.00 0.00 26 1004.9
20210120023221 59 90 16.0 36.0 0.00 0.00 0.00 26 1004.9
20210120022319 59 90 20.0 30.0 0.00 0.00 0.00 25 1005.0
20210120022138 59 90 25.0 35.0 0.00 0.00 0.00 24 1004.9
20210120022020 59 90 25.0 35.0 0.00 0.00 0.00 24 1004.9
20210120021530 60 90 27.0 39.0 0.00 0.00 0.00 24 1004.9
20210120021413 60 90 27.0 39.0 0.00 0.00 0.00 24 1004.9
20210120021308 60 90 18.0 39.0 0.00 0.00 0.00 22 1004.6
20210120021112 60 90 18.0 39.0 0.00 0.00 0.00 22 1004.6
20210120020300 60 45 16.0 41.0 0.00 0.00 0.00 20 1004.4
20210120020210 60 45 16.0 41.0 0.00 0.00 0.00 20 1004.4
20210120015909 60 45 12.0 33.0 0.00 0.00 0.00 20 1004.7
20210120015731 60 45 14.0 34.0 0.00 0.00 0.00 20 1004.6
20210120015607 60 45 14.0 34.0 0.00 0.00 0.00 20 1004.6
20210120015142 60 90 14.0 43.0 0.00 0.00 0.00 19 1004.6
20210120015017 60 90 14.0 43.0 0.00 0.00 0.00 19 1004.6
20210120014403 60 92 23.0 29.0 0.00 0.00 0.00 19 1004.1
20210120014101 60 87 20.0 28.0 0.00 0.00 0.00 19 1004.0
20210120013902 60 90 27.0 29.0 0.00 0.00 0.00 19 1004.2
20210120013807 60 90 27.0 29.0 0.00 0.00 0.00 19 1004.2
20210120013616 60 90 20.0 26.0 0.00 0.00 0.00 19 1004.3
20210120013512 60 90 20.0 26.0 0.00 0.00 0.00 19 1004.3
20210120013205 60 135 21.0 23.0 0.00 0.00 0.00 18 1004.2
20210120013025 60 135 25.0 36.0 0.00 0.00 0.00 18 1003.7
20210120012857 60 135 25.0 36.0 0.00 0.00 0.00 18 1003.7
20210120012644 60 135 25.0 25.0 0.00 0.00 0.00 18 1004.3
20210120012556 60 135 25.0 25.0 0.00 0.00 0.00 18 1004.3
20210120012419 60 90 17.0 32.0 0.00 0.00 0.00 18 1004.0
20210120012255 60 90 17.0 32.0 0.00 0.00 0.00 18 1004.0
20210120011958 60 40 18.0 36.0 0.00 0.00 0.00 18 1004.6
20210120011803 60 6 36.0 36.0 0.00 0.00 0.00 18 1003.2
20210120011652 60 6 36.0 36.0 0.00 0.00 0.00 18 1003.2
20210120011351 60 45 24.0 24.0 0.00 0.00 0.00 18 1003.9
20210120010037 61 38 13.0 32.0 0.00 0.00 0.00 17 1003.9
20210120005850 61 38 13.0 32.0 0.00 0.00 0.00 17 1003.9
20210120005710 61 0 17.0 30.0 0.00 0.00 0.00 17 1004.4
20210120005550 61 0 17.0 30.0 0.00 0.00 0.00 17 1004.4
20210120005410 61 90 30.0 30.0 0.00 0.00 0.00 17 1003.9
20210120005244 61 90 30.0 30.0 0.00 0.00 0.00 17 1003.9
20210120005111 61 90 20.0 22.0 0.00 0.00 0.00 17 1004.2
20210120004946 61 90 20.0 22.0 0.00 0.00 0.00 17 1004.2
20210120004527 61 96 11.0 33.0 0.00 0.00 0.00 17 1004.1
20210120004341 61 96 11.0 33.0 0.00 0.00 0.00 17 1004.1
20210120004152 61 130 26.0 31.0 0.00 0.00 0.00 17 1003.8
20210120004047 61 130 26.0 31.0 0.00 0.00 0.00 17 1003.8
20210120002635 62 45 10.0 33.0 0.00 0.00 0.00 16 1003.8
20210120002535 62 45 10.0 33.0 0.00 0.00 0.00 16 1003.8
20210120002416 62 45 30.0 30.0 0.00 0.00 0.00 16 1003.6
20210120002238 62 45 30.0 30.0 0.00 0.00 0.00 16 1003.6
20210120001636 62 90 11.0 27.0 0.00 0.00 0.00 16 1003.6
20210120001150 62 45 7.0 28.0 0.00 0.00 0.00 16 1003.6
20210120001045 62 45 7.0 28.0 0.00 0.00 0.00 16 1003.6
20210120000556 62 0 29.0 33.0 0.00 0.00 0.00 16 1003.6
20210120000426 62 0 29.0 33.0 0.00 0.00 0.00 16 1003.6
20210119235419 62 337 18.0 32.0 0.00 0.00 0.00 15 1003.8
20210119235222 62 337 18.0 32.0 0.00 0.00 0.00 15 1003.8
20210119235038 62 0 16.0 37.0 0.00 0.00 0.00 15 1003.5
20210119234922 62 0 16.0 37.0 0.00 0.00 0.00 15 1003.5
20210119234623 62 0 31.0 37.0 0.00 0.00 0.00 15 1003.5
20210119234323 62 0 17.0 24.0 0.00 0.00 0.00 15 1003.2
20210119234031 62 0 8.0 36.0 0.00 0.00 0.00 15 1003.3
20210119232813 62 0 22.0 37.0 0.00 0.00 0.00 15 1003.1
20210119232617 62 0 26.0 37.0 0.00 0.00 0.00 15 1002.9
20210119232523 62 0 26.0 37.0 0.00 0.00 0.00 15 1002.9
20210119232337 62 326 29.0 33.0 0.00 0.00 0.00 15 1002.0
20210119232212 62 326 29.0 33.0 0.00 0.00 0.00 15 1002.0
20210119231724 63 69 18.0 33.0 0.00 0.00 0.00 15 1002.9
20210119231610 63 69 18.0 33.0 0.00 0.00 0.00 15 1002.9
20210119231227 63 321 19.0 28.0 0.00 0.00 0.00 15 1002.8
20210119231023 63 321 19.0 28.0 0.00 0.00 0.00 15 1002.8
20210119224642 63 45 19.0 40.0 0.00 0.00 0.00 14 1003.0
20210119224603 63 45 19.0 40.0 0.00 0.00 0.00 14 1003.0
20210119224117 63 74 44.0 49.0 0.00 0.00 0.00 14 1002.2
20210119223957 63 74 44.0 49.0 0.00 0.00 0.00 14 1002.2
20210119223355 63 90 28.0 37.0 0.00 0.00 0.00 14 1002.4
20210119223110 63 45 16.0 38.0 0.00 0.00 0.00 14 1002.5
20210119222450 63 90 30.0 35.0 0.00 0.00 0.00 14 1002.3
20210119222151 63 45 16.0 42.0 0.00 0.00 0.00 14 1002.5
20210119221847 63 128 30.0 42.0 0.00 0.00 0.00 14 1001.3
20210119221601 63 90 25.0 29.0 0.00 0.00 0.00 14 1002.1
20210119221246 63 90 23.0 25.0 0.00 0.00 0.00 14 1002.4
20210119220343 63 87 17.0 34.0 0.00 0.00 0.00 14 1002.4
20210119220041 63 45 23.0 36.0 0.00 0.00 0.00 14 1002.2
20210119215138 63 90 19.0 29.0 0.00 0.00 0.00 13 1002.5
20210119214841 63 90 20.0 36.0 0.00 0.00 0.00 14 1002.5
20210119214536 63 90 27.0 41.0 0.00 0.00 0.00 13 1002.0
20210119214235 63 90 30.0 41.0 0.00 0.00 0.00 13 1002.2
20210119213635 63 90 23.0 37.0 0.00 0.00 0.00 13 1002.2
20210119213332 63 90 25.0 34.0 0.00 0.00 0.00 13 1002.1
20210119213045 63 112 22.0 34.0 0.00 0.00 0.00 13 1002.1
20210119212732 63 103 22.0 32.0 0.00 0.00 0.00 13 1001.9
20210119212126 62 90 35.0 35.0 0.00 0.00 0.00 13 1000.7
20210119211825 62 90 19.0 34.0 0.00 0.00 0.00 14 1002.1
20210119211525 62 90 34.0 37.0 0.00 0.00 0.00 13 1001.6
20210119210320 62 45 22.0 38.0 0.00 0.00 0.00 13 1002.0
20210119210032 62 0 23.0 38.0 0.00 0.00 0.00 13 1002.2
20210119205718 62 45 18.0 36.0 0.00 0.00 0.00 13 1001.9
20210119205417 62 90 33.0 36.0 0.00 0.00 0.00 13 1002.1
20210119204522 62 18 16.0 39.0 0.00 0.00 0.00 13 1001.8
20210119203312 62 112 25.0 37.0 0.00 0.00 0.00 13 1001.7
20210119203023 62 135 17.0 36.0 0.00 0.00 0.00 13 1002.1
20210119202707 62 135 34.0 36.0 0.00 0.00 0.00 13 1001.8
20210119202104 61 135 25.0 35.0 0.00 0.00 0.00 13 1001.7
20210119201510 61 135 22.0 32.0 0.00 0.00 0.00 14 1001.9
20210119200259 61 135 26.0 40.0 0.00 0.00 0.00 14 1001.6
20210119195956 61 135 24.0 43.0 0.00 0.00 0.00 14 1001.6
20210119195657 61 83 23.0 43.0 0.00 0.00 0.00 14 1001.5
20210119195355 61 90 30.0 41.0 0.00 0.00 0.00 14 1001.6
20210119195054 61 90 33.0 45.0 0.00 0.00 0.00 14 1001.8
20210119194755 61 90 15.0 41.0 0.00 0.00 0.00 14 1001.8
20210119194150 61 90 26.0 45.0 0.00 0.00 0.00 13 1001.7
20210119193849 61 112 16.0 45.0 0.00 0.00 0.00 14 1002.0
20210119193549 61 135 19.0 35.0 0.00 0.00 0.00 14 1002.2
20210119193248 61 90 22.0 35.0 0.00 0.00 0.00 14 1001.9
20210119192948 61 45 12.0 36.0 0.00 0.00 0.00 14 1002.1
20210119192645 61 63 24.0 33.0 0.00 0.00 0.00 14 1001.9
20210119192347 61 90 26.0 50.0 0.00 0.00 0.00 14 1001.7
20210119192044 61 135 40.0 50.0 0.00 0.00 0.00 14 1000.9
20210119191440 61 90 14.0 40.0 0.00 0.00 0.00 15 1002.0
20210119191139 60 119 27.0 40.0 0.00 0.00 0.00 14 1002.3
20210119185032 60 90 16.0 45.0 0.00 0.00 0.00 15 1002.5
20210119184731 60 45 26.0 45.0 0.00 0.00 0.00 15 1001.7
20210119184429 60 0 32.0 32.0 0.00 0.00 0.00 15 1002.1
20210119184129 60 90 13.0 32.0 0.00 0.00 0.00 15 1002.4
20210119183827 60 24 23.0 38.0 0.00 0.00 0.00 15 1002.3
20210119183528 60 90 15.0 37.0 0.00 0.00 0.00 15 1002.2
20210119182923 60 90 13.0 34.0 0.00 0.00 0.00 15 1002.1
20210119182627 60 90 16.0 34.0 0.00 0.00 0.00 15 1002.0
20210119182322 59 0 32.0 42.0 0.00 0.00 0.00 15 1001.9
20210119182026 59 90 27.0 37.0 0.00 0.00 0.00 15 1001.7
20210119181117 59 90 33.0 33.0 0.00 0.00 0.00 15 1002.6
20210119180813 59 67 24.0 47.0 0.00 0.00 0.00 15 1001.9
20210119180208 59 49 25.0 30.0 0.00 0.00 0.00 15 1001.5
20210119175609 59 92 13.0 40.0 0.00 0.00 0.00 16 1001.8
20210119175019 58 54 43.0 43.0 0.00 0.00 0.00 16 1000.5
20210119174402 58 90 37.0 41.0 0.00 0.00 0.00 15 1001.9
20210119173759 58 45 21.0 45.0 0.00 0.00 0.00 16 1001.1
20210119173459 58 45 20.0 36.0 0.00 0.00 0.00 16 1001.4
20210119172857 58 94 28.0 34.0 0.00 0.00 0.00 16 1000.9
20210119171953 58 90 25.0 38.0 0.00 0.00 0.00 16 1001.3
20210119171656 57 90 37.0 37.0 0.00 0.00 0.00 16 1000.1
20210119171051 57 38 13.0 35.0 0.00 0.00 0.00 16 1001.1
20210119164042 57 128 25.0 34.0 0.00 0.00 0.00 16 1000.7
20210119163742 57 135 24.0 35.0 0.00 0.00 0.00 16 1000.6
20210119162836 57 90 28.0 34.0 0.00 0.00 0.00 16 1000.7
20210119162533 57 90 22.0 34.0 0.00 0.00 0.00 16 1000.3
20210119161931 57 90 14.0 39.0 0.00 0.00 0.00 16 1000.4
20210119161633 57 112 22.0 28.0 0.00 0.00 0.00 17 1000.5
20210119161034 56 22 17.0 32.0 0.00 0.00 0.00 17 1000.2
20210119160728 56 0 29.0 31.0 0.00 0.00 0.00 17 1000.4
20210119160426 56 18 20.0 27.0 0.00 0.00 0.00 17 1000.1
20210119155828 56 90 14.0 28.0 0.00 0.00 0.00 17 1000.3
20210119155522 56 112 24.0 30.0 0.00 0.00 0.00 18 999.9
20210119155222 55 135 12.0 30.0 0.00 0.00 0.00 18 999.9
20210119154923 56 135 19.0 26.0 0.00 0.00 0.00 18 999.9
20210119154022 55 90 22.0 31.0 0.00 0.00 0.00 17 999.3
20210119153413 55 135 20.0 39.0 0.00 0.00 0.00 18 999.4
20210119153107 55 135 20.0 39.0 0.00 0.00 0.00 18 999.6
20210119152808 55 90 11.0 22.0 0.00 0.00 0.00 18 999.8
20210119152207 55 135 19.0 40.0 0.00 0.00 0.00 18 999.6
20210119151613 56 90 21.0 38.0 0.00 0.00 0.00 17 999.7
20210119151316 56 90 26.0 31.0 0.00 0.00 0.00 17 999.0
20210119151014 56 45 15.0 32.0 0.00 0.00 0.00 17 999.1
20210119150358 56 90 28.0 41.0 0.00 0.00 0.00 17 999.1
20210119145756 56 90 38.0 38.0 0.00 0.00 0.00 17 998.8
20210119145454 56 90 18.0 30.0 0.00 0.00 0.00 17 999.3
20210119145153 56 42 13.0 31.0 0.00 0.00 0.00 17 998.9
20210119144853 56 45 25.0 30.0 0.00 0.00 0.00 17 999.1
20210119144557 56 45 12.0 41.0 0.00 0.00 0.00 16 999.0
20210119143652 56 67 24.0 38.0 0.00 0.00 0.00 16 999.0
20210119143046 56 45 22.0 28.0 0.00 0.00 0.00 17 998.9
20210119142448 56 63 19.0 38.0 0.00 0.00 0.00 16 998.9
20210119142142 56 0 17.0 23.0 0.00 0.00 0.00 16 998.8
20210119141540 56 47 24.0 40.0 0.00 0.00 0.00 16 998.9
20210119141245 56 128 18.0 40.0 0.00 0.00 0.00 16 998.2
20210119140643 57 135 22.0 36.0 0.00 0.00 0.00 16 998.6
20210119140337 57 135 32.0 32.0 0.00 0.00 0.00 16 998.7
20210119140040 57 135 14.0 42.0 0.00 0.00 0.00 16 998.6
20210119135741 57 90 10.0 42.0 0.00 0.00 0.00 16 998.4
20210119135433 57 94 24.0 33.0 0.00 0.00 0.00 17 998.4
20210119135132 57 90 19.0 25.0 0.00 0.00 0.00 16 998.1
20210119133928 57 90 22.0 34.0 0.00 0.00 0.00 17 998.8
20210119133325 58 0 22.0 45.0 0.00 0.00 0.00 17 998.9
20210119133032 58 36 22.0 45.0 0.00 0.00 0.00 17 999.0
20210119132422 58 90 17.0 25.0 0.00 0.00 0.00 17 998.6
20210119132122 58 90 18.0 29.0 0.00 0.00 0.00 17 998.5
20210119131822 58 63 22.0 31.0 0.00 0.00 0.00 16 998.5
20210119131521 58 90 28.0 31.0 0.00 0.00 0.00 16 998.5
20210119131217 58 90 16.0 36.0 0.00 0.00 0.00 16 998.3
20210119130916 58 112 18.0 36.0 0.00 0.00 0.00 16 998.6
20210119130617 59 22 18.0 24.0 0.00 0.00 0.00 16 998.7
20210119130316 59 0 11.0 29.0 0.00 0.00 0.00 15 998.8
20210119130021 59 40 17.0 30.0 0.00 0.00 0.00 15 998.7
20210119125713 59 45 17.0 25.0 0.00 0.00 0.00 15 999.0
20210119125410 59 42 15.0 19.0 0.00 0.00 0.00 15 998.8
20210119125111 59 42 13.0 25.0 0.00 0.00 0.00 15 998.9
20210119124808 59 45 8.0 25.0 0.00 0.00 0.00 15 998.9
20210119124519 59 0 24.0 24.0 0.00 0.00 0.00 15 998.5
20210119124208 59 9 24.0 30.0 0.00 0.00 0.00 15 998.5
20210119123909 60 90 21.0 30.0 0.00 0.00 0.00 15 997.8
20210119123613 60 112 9.0 34.0 0.00 0.00 0.00 15 998.6
20210119123309 60 135 11.0 31.0 0.00 0.00 0.00 15 998.5
20210119122059 60 45 10.0 38.0 0.00 0.00 0.00 15 998.3
20210119121801 60 45 17.0 38.0 0.00 0.00 0.00 14 998.2
20210119121457 60 90 19.0 34.0 0.00 0.00 0.00 14 998.1
20210119121155 61 135 15.0 34.0 0.00 0.00 0.00 14 998.2
20210119120903 61 135 22.0 34.0 0.00 0.00 0.00 14 998.1
20210119120255 61 45 28.0 35.0 0.00 0.00 0.00 14 998.0
20210119115955 61 49 27.0 35.0 0.00 0.00 0.00 14 997.7
20210119115355 61 90 23.0 26.0 0.00 0.00 0.00 14 998.1
20210119115053 61 67 21.0 30.0 0.00 0.00 0.00 14 998.0
20210119114746 61 67 15.0 30.0 0.00 0.00 0.00 14 997.8
20210119114144 61 45 22.0 29.0 0.00 0.00 0.00 14 998.2
20210119113546 61 45 29.0 33.0 0.00 0.00 0.00 14 998.4
20210119112343 62 0 14.0 30.0 0.00 0.00 0.00 13 998.2
20210119112048 62 0 22.0 32.0 0.00 0.00 0.00 13 998.2
20210119111735 62 0 28.0 28.0 0.00 0.00 0.00 13 998.0
20210119111434 62 337 15.0 28.0 0.00 0.00 0.00 13 998.3
20210119111134 62 337 13.0 31.0 0.00 0.00 0.00 13 998.7
20210119110532 62 0 23.0 29.0 0.00 0.00 0.00 13 998.4
20210119110234 62 0 7.0 24.0 0.00 0.00 0.00 13 998.4
20210119105929 63 0 10.0 24.0 0.00 0.00 0.00 13 998.7
20210119105633 63 0 11.0 28.0 0.00 0.00 0.00 13 998.6
20210119105328 63 0 15.0 28.0 0.00 0.00 0.00 13 998.2
20210119105034 63 45 6.0 28.0 0.00 0.00 0.00 13 998.5
20210119104425 63 0 18.0 24.0 0.00 0.00 0.00 14 998.3
20210119104124 63 0 13.0 24.0 0.00 0.00 0.00 14 998.6
20210119103821 62 0 19.0 20.0 0.00 0.00 0.00 14 998.9
20210119103521 62 49 18.0 24.0 0.00 0.00 0.00 14 998.7
20210119103222 62 40 16.0 24.0 0.00 0.00 0.00 14 998.8
20210119102618 61 45 17.0 23.0 0.00 0.00 0.00 15 998.9
20210119102316 60 135 22.0 22.0 0.00 0.00 0.00 17 998.9
20210119102027 59 180 7.0 12.0 0.00 0.00 0.00 20 999.1
20210119101714 58 180 4.0 18.0 0.00 0.00 0.00 21 998.7
20210119101412 58 135 7.0 18.0 0.00 0.00 0.00 21 999.1
20210119101111 57 180 5.0 22.0 0.00 0.00 0.00 26 999.2
20210119100810 56 135 8.0 22.0 0.00 0.00 0.00 28 999.1
20210119095607 56 139 2.0 4.0 0.00 0.00 0.00 40 999.6
20210119095313 56 135 2.0 3.0 0.00 0.00 0.00 40 999.6
20210119095021 56 137 3.0 5.0 0.00 0.00 0.00 39 999.6